{"data":{"norad_id":67546,"epoch":"2026-09-19T23:09:51.564960Z","epoch_age_seconds":118466,"freshness":"FRESH","line1":"1 67546U 26014Q   26262.96518015  .00012770  00000+0  39710-3 0  9993","line2":"2 67546  97.2845 148.2982 0001806  92.8376 267.3074 15.33453472 38556","mean_motion":15.33453472,"eccentricity":0.0001806,"inclination_deg":97.2845,"raan_deg":148.2982,"arg_perigee_deg":92.8376,"mean_anomaly_deg":267.3074,"bstar":0.0003971,"rev_number":3855,"period_min":93.905685845289,"perigee_km":464.28200379554,"apogee_km":466.75393196994,"semimajor_km":6843.6549678827,"source":"CELESTRAK","updated_at":"2026-09-20T09:00:43.569811Z"}}